Regional Weather Roundup
Issued by NWS

Home | Current Version | Previous Version | Text Only | Print | Product List | Glossary Off
Versions: 1 2 3 4 5 6 7 8 9 10 11 12 13 14 15 16 17 18 19 20 21 22 23 24 25 26 27 28 29 30 31 32 33 34 35 36 37 38 39 40 41 42 43 44 45 46 47 48 49 50

291
ASUS44 KLIX 202305
RWRLA
LOUISIANA WEATHER ROUNDUP
NATIONAL WEATHER SERVICE NEW ORLEANS LA
600 PM CDT SUN APR 20 2014

NOTE: "FAIR" INDICATES FEW OR NO CLOUDS BELOW 12,000 FEET WITH NO
      SIGNIFICANT WEATHER AND/OR OBSTRUCTIONS TO VISIBILITY.
      SKY/WX - SKY CONDITION AND SIGNIFICANT WEATHER.
      TMP - AIR TEMPERATURE.    DP   - DEWPOINT TEMPERATURE.
      RH  - RELATIVE HUMIDITY.  PRES - PRESSURE.
      HX  - HEAT INDEX.         WCI  - WIND CHILL INDEX.

*  THESE STATIONS ARE NOT NWS OR FAA STATIONS AND ARE NOT UNDER
   NWS QUALITY CONTROL.

LAZ040-048-061>063-065-066-069-210000-
SOUTHEAST LOUISIANA

CITY           SKY/WX    TMP DP  RH WIND       PRES   REMARKS
N.O. AUDUBON   NOT AVBL
N.O. INTL ARPT MOSUNNY   81  51  35 NE6       30.09F
N.O. LAKEFRONT SUNNY     77  55  46 W3        30.09F
N.O. DOWNTOWN* FAIR      81  50  34 CALM      30.09F
SLIDELL        SUNNY     78  53  41 S10       30.08F
BATON ROUGE    SUNNY     83  52  34 E5        30.08F
BOOTHVILLE     SUNNY     69  58  67 E7        30.12S
BELLE CHASSE   SUNNY    N/A N/A N/A SW8       30.09S
BOGALUSA*        N/A     82  47  28 E5        30.10F
GALLIANO*      CLEAR     76  62  61 SE6       30.10F
NEW ROADS*     FAIR      81  50  34 SE3       30.08F
GONZALES*      FAIR      81  52  36 E6        30.08F
HAMMOND*       SUNNY     81  48  32 S7        30.10S
HOUMA*         MOSUNNY   79  59  50 S6        30.09F
PORT FOURCHON* CLEAR     70  61  73 SE9       30.12F

$$

LAZ041-044-053-054-210000-
SOUTHWEST LOUISIANA

CITY           SKY/WX    TMP DP  RH WIND       PRES   REMARKS
LAKE CHARLES   SUNNY     77  54  44 SW7       30.08F
LAFAYETTE      SUNNY     81  56  42 VRB5      30.08F
PATTERSON      MOSUNNY   79  55  44 SW9       30.13S
SALT POINT       N/A     77  65  66 SW5       30.09F
NEW IBERIA     SUNNY     79  56  45 SW12      30.09F
CHENAULT AIRPK SUNNY     79  52  38 SW10      30.09F

$$

LAZ027-028-210000-
CENTRAL LOUISIANA

CITY           SKY/WX    TMP DP  RH WIND       PRES   REMARKS
FORT POLK      SUNNY     80  54  40 S7        30.07S
ALEXANDRIA INT SUNNY     80  55  42 SE9       30.05F
ALEXANDRIA     SUNNY     83  52  34 SE6       30.07F

$$

LAZ001-002-210000-
NORTHWEST LOUISIANA

CITY           SKY/WX    TMP DP  RH WIND       PRES   REMARKS
SHREVEPORT     CLOUDY    79  55  43 SW8       30.06S
BARKSDALE AFB  PTSUNNY   80  55  42 SE6       30.05F
DTN SHREVEPORT PTSUNNY   77  57  50 SE7       30.05F

$$

LAZ014-016-210000-
NORTHEAST LOUISIANA

CITY           SKY/WX    TMP DP  RH WIND       PRES   REMARKS
MONROE         SUNNY     80  51  36 SE5       30.08F
TALLULAH       SUNNY     81  52  36 E6        30.08F

$$




USA.gov is the U.S. government's official web portal to all federal, state and local government web resources and services.